星链-34569 (STARLINK-34569)

导读 | 豆包AI

STARLINK-34569是美国SpaceX公司“星链”(Starlink)星座的一颗低轨通信卫星,于2025年6月25日发射入轨。作为星链第二代组网卫星,它属于星链卫星互联网星座,运行于近地轨道,配备相控阵天线与激光星间链路技术,可为全球尤其是基础设施匮乏地区提供高速低延迟宽带互联网接入服务,推动全球互联互通。

Basic Information
目录编号:
64610
目录名称:
STARLINK-34569
国际标识:
2025-137S
轨道中心:
EARTH
卫星名称:
星链-34569
卫星全名:
星链-34569 (STARLINK-34569)
卫星状态:
在轨 (已飞行308 天)
发射日期:
2025-06-25 UTC
国别 :
美国 (US)
星等 :
--
Orbit Information
数据来源 国际轨道数据 AOE轨道数据
星历时间 2026-04-29T14:10:32+0800
9小时前
查看轨道信息
2026-04-29T00:00:00+0800
23小时前
查看轨道信息
半长轴 6853.328km 6853.401km
偏心率 0.0001301 0.0001805
轨道倾角 53.159° 53.154°
近地点辐角 89.829° 83.943°
升交点赤经 100.592° 103.333°
平近点角 270.286° 260.644°
近地点 474.299km 474.026km
远地点 476.083km 476.502km
周期 94.105分钟 94.106分钟
每日圈数 15.302082 15.301837
Detailed Information
固有亮度:
5
最大亮度:
2.5
卫星平台:
Starlink V1.0
覆盖范围:
全球
运营商:
太空探索技术公司
运营商所在国:
美国
制造商(研发单位):
太空探索技术公司
制造商所在国:
美国
使用方式:
暂无
Satellite Introduction
Starlink 计划是 SpaceX 推出的全球卫星互联网项目,通过发射低轨道卫星,为全球尤其是偏远地区提供高速、低延迟的互联网服务。自 2019 年起,Starlink 已部署数千颗卫星,旨在缩小全球数字鸿沟,推动互联网普及。该项目还为军事、航空等行业提供通信支持,带来广泛经济效益。
2D Orbit Map
3D Orbit Map
Orbit Altitude Analysis Chart
Orbit Inclination Analysis Chart
Orbit Comprehensive Analysis Chart
View Comprehensive Chart